Location: Kimberly
(42.5380°N, 114.3640°W)
Time: 01:14:46
(UTC-07:00)

ISS - Visible Passes

Search period start: 25 January 2021 00:00
Search period end: 04 February 2021 00:00
Orbit: 418 x 421 km, 51.6° (Epoch: 25 January)

Date Brightness Start Highest point End Pass type
(mag) Time Alt. Az. Time Alt. Az. Time Alt. Az.
25 Jan -1.7 19:18:55 10° NW 19:21:22 18° N 19:21:52 18° N visible
26 Jan -1.8 18:31:09 10° WNW 18:33:47 20° NNW 18:36:25 10° NE visible
26 Jan -0.8 20:09:01 10° NW 20:09:24 12° NW 20:09:24 12° NW visible
27 Jan -1.7 19:21:32 10° NW 19:23:53 17° N 19:23:58 17° N visible
28 Jan -1.7 18:33:55 10° NW 18:36:16 17° N 18:38:33 10° NE visible
28 Jan -0.8 20:11:02 10° NW 20:11:31 13° NW 20:11:31 13° NW visible
29 Jan -2.0 19:23:40 10° NW 19:26:07 21° N 19:26:07 21° N visible
30 Jan -1.9 18:36:14 10° NW 18:38:42 18° N 18:40:45 12° NE visible
30 Jan -1.1 20:12:51 10° NW 20:13:44 16° NW 20:13:44 16° NW visible
31 Jan -2.8 19:25:31 10° NW 19:28:25 32° NNE 19:28:25 32° NNE visible
01 Feb -2.4 18:38:09 10° NW 18:41:03 25° NNE 18:43:12 14° ENE visible
01 Feb -1.4 20:14:45 10° WNW 20:16:11 23° WNW 20:16:11 23° WNW visible
02 Feb -3.9 19:27:18 10° NW 19:30:41 73° NNE 19:31:04 62° E visible
03 Feb -3.4 18:39:54 10° NW 18:43:11 47° NNE 18:46:06 12° ESE visible
03 Feb -1.4 20:17:02 10° W 20:19:07 22° WSW 20:19:07 22° WSW visible
